This is the latest recevied weather packets stored in our database for station/object K5NWZ. If no packets are shown the sender has not sent any weather packets the latest 1 day(s).
| Time | Temp. | Humidity | Pressure | Rain* | Wind** | Luminosity | Snow |
|---|---|---|---|---|---|---|---|
| 1778035226 | 0.56° C | 97% | 1024.4 hPa | 0 mm | 0 m/s | 0 W/m² | - |
| 1778034922 | 0.56° C | 97% | 1024.1 hPa | 0 mm | 0 m/s | 0 W/m² | - |
| 1778034620 | 0° C | 97% | 1023.9 hPa | 0 mm | 0 m/s | 0 W/m² | - |
| 1778034317 | 0° C | 97% | 1024 hPa | 0 mm | 0 m/s | 0 W/m² | - |
| 1778034014 | 0° C | 97% | 1024 hPa | 0 mm | 0 m/s | 0 W/m² | - |
| 1778033712 | 0° C | 97% | 1023.9 hPa | 0 mm | 0.45 m/s, 320° | 0 W/m² | - |
| 1778033409 | 0° C | 97% | 1023.9 hPa | 0 mm | 0 m/s | 0 W/m² | - |
| 1778033106 | 0° C | 97% | 1024 hPa | 0 mm | 0 m/s | 0 W/m² | - |
| 1778032803 | 0.56° C | 97% | 1023.7 hPa | 0 mm | 0 m/s | 1 W/m² | - |
| 1778032501 | 0.56° C | 97% | 1023.7 hPa | 0 mm | 0 m/s | 1 W/m² | - |
| 1778032197 | 0.56° C | 97% | 1023.8 hPa | 0 mm | 0 m/s | 2 W/m² | - |
| 1778031894 | 0.56° C | 97% | 1023.9 hPa | 0 mm | 0.45 m/s, 314° | 2 W/m² | - |
| 1778031590 | 0.56° C | 97% | 1023.7 hPa | 0 mm | 0 m/s | 3 W/m² | - |
| 1778031289 | 0° C | 97% | 1023.4 hPa | 0 mm | 0 m/s | 3 W/m² | - |
| 1778030985 | 0° C | 97% | 1023.4 hPa | 0 mm | 0 m/s | 4 W/m² | - |
| 1778030682 | 0° C | 97% | 1023.3 hPa | 0 mm | 0 m/s | 4 W/m² | - |
| 1778030379 | 0° C | 97% | 1023.4 hPa | 0 mm | 0 m/s | 5 W/m² | - |
| 1778030076 | 0° C | 97% | 1023.3 hPa | 0 mm | 0 m/s | 7 W/m² | - |
| 1778029773 | 0° C | 97% | 1023.2 hPa | 0 mm | 0 m/s | 8 W/m² | - |
| 1778029472 | 0.56° C | 97% | 1023.2 hPa | 0 mm | 0 m/s | 8 W/m² | - |
| 1778029167 | 0° C | 97% | 1023.2 hPa | 0 mm | 0 m/s | 8 W/m² | - |
| 1778028865 | 0° C | 97% | 1023.2 hPa | 0 mm | 0 m/s | 11 W/m² | - |
| 1778028560 | 0° C | 97% | 1023.4 hPa | 0 mm | 0.89 m/s, 303° | 14 W/m² | - |
| 1778028259 | 0° C | 97% | 1023.2 hPa | 0 mm | 0 m/s | 15 W/m² | - |
| 1778027954 | 0° C | 97% | 1023.2 hPa | 0 mm | 0 m/s | 14 W/m² | - |
* Rain latest hour (hover to see other rain measurements)
** Current wind speed in m/s (hover to see current wind gust speed)